Regional Weather Roundup
Issued by NWS

Home | Current Version | Previous Version | Graphics & Text | Print | Product List | Glossary On
Versions: 1 2 3 4 5 6 7 8 9 10 11 12 13 14 15 16 17 18 19 20 21 22 23 24 25 26 27 28 29 30 31 32 33 34 35 36 37 38 39 40 41 42 43 44 45 46 47 48 49 50
477
ASUS44 KJAN 200103
RWRMS

MISSISSIPPI HOURLY WEATHER ROUNDUP
NATIONAL WEATHER SERVICE JACKSON MS
800 PM CDT FRI SEP 19 2014

NOTE: "FAIR: INDICATES FEW OR NO CLOUDS BELOW 12,000 FEET WITH NO
SIGNIFICANT WEATHER AND/OR OBSTRUCTIONS TO VISIBILITY.

MSZ001>002-007>008-010>013-018>021-025>028-034>036-200200-
NORTHWEST MISSISSIPPI

CITY           SKY/WX    TMP DP  RH WIND       PRES   REMARKS
CLARKSDALE     FAIR      77  70  78 CALM      29.99R
CLEVELAND      FAIR      78  71  78 E5        29.96S
GREENWOOD      CLEAR     74  70  87 N3        29.97R
GREENVILLE     CLEAR     78  66  66 E3        29.95S
GRENADA        FAIR      73  70  88 CALM      29.98S
OLIVE BRANCH   CLEAR     73  73 100 CALM      30.01R
OXFORD         FAIR      72  68  88 CALM      30.01S
TUNICA         CLEAR     73  68  83 CALM      30.00R
$$

MSZ003>006-009-014>017-022>024-029>033-037>039-200200-
NORTHEAST MISSISSIPPI

CITY           SKY/WX    TMP DP  RH WIND       PRES   REMARKS
COLUMBUS AFB   CLEAR     76  71  82 NW1       29.99R
CORINTH        FAIR      73  68  83 CALM      30.00S
GOLDN TRIANGLE CLEAR     77  64  65 NE3       29.99R
STARKVILLE     FAIR      72  66  83 CALM      29.99R
TUPELO         CLEAR     78  68  71 CALM      29.99S
$$

MSZ040-058-200200-
CENTRAL MISSISSIPPI

CITY           SKY/WX    TMP DP  RH WIND       PRES   REMARKS
JACKSON INTL   CLEAR     77  71  82 CALM      29.97R
JACKSON HAWKNS CLEAR     80  69  69 E3        29.97R
MERIDIAN KEY   CLEAR     74  68  81 CALM      29.97R
MERIDIAN NAS   CLEAR     76  67  73 N7        29.98R
RAYMOND        FAIR      75  70  83 CALM      29.96S
VICKSBURG      PTCLDY    75  70  84 CALM      29.95R
$$

MSZ059>079-200200-
SOUTH MISSISSIPPI

CITY           SKY/WX    TMP DP  RH WIND       PRES   REMARKS
BROOKHAVEN     FAIR      73  72  94 CALM      29.98S
COLUMBIA       FAIR      73  72  94 CALM      29.95R
HATTIESBURG    CLEAR     73  70  90 CALM      29.97R
MCCOMB         CLEAR     76  68  76 SE3       29.97R
NATCHEZ        CLEAR     77  72  83 CALM      29.96S
PINE BELT      CLEAR    N/A N/A N/A CALM      29.98R
$$

MSZ080>082-200200-
COASTAL MISSISSIPPI

CITY           SKY/WX    TMP DP  RH WIND       PRES   REMARKS
BILOXI         CLEAR     81  65  58 SE10      29.95R
PASCAGOULA     CLEAR     74  69  85 CALM      29.96R
GULFPORT       CLEAR     81  65  58 SE12      29.94R
$$



USA.gov is the U.S. government's official web portal to all federal, state and local government web resources and services.